• In Hungary
  • List of Countries
  • For 7 days
  • Water Temperature
  • Satellite Maps
  • Weather Map
  • News
  • Weather Widgets
  • user-avatar
    Login

    Hourly Weather Urozhaynyy

    Today, 21 August, Tuesday

    Time Temperature Precipitation Wind Pressure Humidity
    00:00 +20°C° 0 mm 2 mps 753 mmHg 48%
    01:00 +19°C° 0 mm 2 mps 753 mmHg 49%
    02:00 +19°C° 0 mm 3 mps 753 mmHg 51%
    03:00 +19°C° 0 mm 3 mps 753 mmHg 48%
    04:00 +19°C° 0 mm 3 mps 753 mmHg 50%
    05:00 +19°C° 0 mm 3 mps 753 mmHg 51%
    06:00 +20°C° 0 mm 3 mps 753 mmHg 52%
    07:00 +22°C° 0 mm 3 mps 753 mmHg 47%
    08:00 +25°C° 0 mm 4 mps 753 mmHg 43%
    09:00 +28°C° 0 mm 4 mps 753 mmHg 37%
    10:00 +29°C° 0 mm 4 mps 753 mmHg 35%
    11:00 +29°C° 0 mm 5 mps 753 mmHg 32%
    12:00 +30°C° 0 mm 5 mps 753 mmHg 29%
    13:00 +30°C° 0 mm 5 mps 752 mmHg 29%
    14:00 +32°C° 0 mm 5 mps 752 mmHg 28%
    15:00 +32°C° 0 mm 5 mps 752 mmHg 27%
    16:00 +30°C° 0 mm 4 mps 751 mmHg 30%
    17:00 +29°C° 0 mm 4 mps 751 mmHg 32%
    18:00 +28°C° 0 mm 3 mps 751 mmHg 35%
    19:00 +27°C° 0 mm 3 mps 751 mmHg 37%
    20:00 +25°C° 0 mm 3 mps 751 mmHg 38%
    21:00 +24°C° 0 mm 3 mps 751 mmHg 40%
    22:00 +22°C° 0 mm 3 mps 751 mmHg 40%
    23:00 +22°C° 0 mm 3 mps 750 mmHg 40%

    Tomorrow, 22 August, Wednesday

    Time Temperature Precipitation Wind Pressure Humidity
    00:00 +21°C° 0 mm 3 mps 750 mmHg 40%
    01:00 +21°C° 0 mm 3 mps 750 mmHg 38%
    02:00 +20°C° 0 mm 4 mps 750 mmHg 37%
    03:00 +20°C° 0 mm 4 mps 750 mmHg 36%
    04:00 +20°C° 0 mm 4 mps 749 mmHg 36%
    05:00 +20°C° 0 mm 5 mps 749 mmHg 37%
    06:00 +20°C° 0 mm 5 mps 749 mmHg 37%
    07:00 +22°C° 0 mm 6 mps 749 mmHg 33%
    08:00 +26°C° 0 mm 7 mps 749 mmHg 29%
    09:00 +28°C° 0 mm 8 mps 749 mmHg 25%
    10:00 +29°C° 0 mm 8 mps 748 mmHg 24%
    11:00 +31°C° 0 mm 8 mps 748 mmHg 23%
    12:00 +32°C° 0 mm 8 mps 748 mmHg 22%
    13:00 +29°C° 0 mm 8 mps 748 mmHg 30%
    14:00 +27°C° 0 mm 8 mps 748 mmHg 37%
    15:00 +24°C° 0 mm 7 mps 748 mmHg 45%
    16:00 +23°C° 0.3 mm 6 mps 748 mmHg 56%
    17:00 +21°C° 0.3 mm 6 mps 748 mmHg 66%
    18:00 +19°C° 0.3 mm 5 mps 748 mmHg 76%
    19:00 +19°C° 0.1 mm 4 mps 749 mmHg 76%
    20:00 +18°C° 0.1 mm 4 mps 749 mmHg 76%
    21:00 +18°C° 0.1 mm 4 mps 750 mmHg 77%
    22:00 +17°C° 0 mm 4 mps 750 mmHg 76%
    23:00 +15°C° 0 mm 4 mps 750 mmHg 75%

    Day after tomorrow, 23 August, Thursday

    Time Temperature Precipitation Wind Pressure Humidity
    00:00 +15°C° 0 mm 4 mps 751 mmHg 75%
    01:00 +14°C° 0 mm 4 mps 751 mmHg 77%
    02:00 +13°C° 0 mm 4 mps 751 mmHg 79%
    03:00 +13°C° 0 mm 4 mps 752 mmHg 81%
    04:00 +13°C° 0 mm 4 mps 752 mmHg 80%
    05:00 +13°C° 0 mm 5 mps 752 mmHg 79%
    06:00 +13°C° 0 mm 5 mps 753 mmHg 79%
    07:00 +14°C° 0 mm 5 mps 753 mmHg 71%
    08:00 +16°C° 0 mm 5 mps 753 mmHg 63%
    09:00 +17°C° 0 mm 6 mps 754 mmHg 55%
    10:00 +19°C° 0 mm 6 mps 754 mmHg 50%
    11:00 +20°C° 0 mm 6 mps 754 mmHg 45%
    12:00 +21°C° 0 mm 6 mps 754 mmHg 40%
    13:00 +22°C° 0 mm 6 mps 754 mmHg 39%
    14:00 +22°C° 0 mm 6 mps 754 mmHg 38%
    15:00 +22°C° 0 mm 6 mps 754 mmHg 37%
    16:00 +21°C° 0 mm 5 mps 754 mmHg 39%
    17:00 +21°C° 0 mm 5 mps 755 mmHg 42%
    18:00 +20°C° 0 mm 4 mps 755 mmHg 45%
    19:00 +19°C° 0 mm 4 mps 755 mmHg 49%
    20:00 +17°C° 0 mm 3 mps 756 mmHg 53%
    21:00 +16°C° 0 mm 3 mps 756 mmHg 57%
    22:00 +14°C° 0 mm 3 mps 756 mmHg 59%
    23:00 +15°C° 0 mm 2 mps 757 mmHg 61%

    24 August, Friday

    Time Temperature Precipitation Wind Pressure Humidity
    00:00 +14°C° 0 mm 2 mps 757 mmHg 62%
    01:00 +14°C° 0 mm 2 mps 757 mmHg 63%
    02:00 +13°C° 0 mm 2 mps 757 mmHg 64%
    03:00 +13°C° 0 mm 2 mps 757 mmHg 65%
    04:00 +13°C° 0 mm 2 mps 757 mmHg 66%
    05:00 +13°C° 0 mm 2 mps 757 mmHg 66%
    06:00 +13°C° 0 mm 2 mps 757 mmHg 66%
    07:00 +15°C° 0 mm 2 mps 757 mmHg 59%
    08:00 +17°C° 0 mm 2 mps 757 mmHg 52%
    09:00 +19°C° 0 mm 3 mps 757 mmHg 46%
    10:00 +20°C° 0 mm 3 mps 757 mmHg 42%
    11:00 +21°C° 0 mm 3 mps 757 mmHg 39%
    12:00 +22°C° 0 mm 4 mps 756 mmHg 35%
    13:00 +23°C° 0 mm 4 mps 756 mmHg 34%
    14:00 +25°C° 0 mm 4 mps 756 mmHg 33%
    15:00 +25°C° 0 mm 4 mps 756 mmHg 32%
    16:00 +25°C° 0 mm 4 mps 755 mmHg 35%
    17:00 +24°C° 0 mm 3 mps 755 mmHg 38%
    18:00 +22°C° 0 mm 3 mps 755 mmHg 40%
    19:00 +21°C° 0 mm 3 mps 755 mmHg 44%
    20:00 +20°C° 0 mm 2 mps 755 mmHg 47%
    21:00 +18°C° 0 mm 2 mps 755 mmHg 51%
    22:00 +18°C° 0 mm 2 mps 755 mmHg 54%
    23:00 +17°C° 0 mm 2 mps 755 mmHg 57%

    25 August, Saturday

    Time Temperature Precipitation Wind Pressure Humidity
    00:00 +17°C° 0 mm 2 mps 755 mmHg 60%
    01:00 +16°C° 0 mm 2 mps 755 mmHg 63%
    02:00 +16°C° 0 mm 2 mps 755 mmHg 66%
    03:00 +15°C° 0 mm 2 mps 755 mmHg 68%
    04:00 +15°C° 0 mm 2 mps 755 mmHg 69%
    05:00 +15°C° 0 mm 2 mps 756 mmHg 70%
    06:00 +15°C° 0 mm 2 mps 756 mmHg 70%
    07:00 +17°C° 0 mm 3 mps 756 mmHg 64%
    08:00 +19°C° 0 mm 3 mps 756 mmHg 58%
    09:00 +21°C° 0 mm 3 mps 756 mmHg 52%
    10:00 +24°C° 0 mm 3 mps 756 mmHg 49%
    11:00 +25°C° 0 mm 3 mps 756 mmHg 45%
    12:00 +26°C° 0 mm 3 mps 756 mmHg 42%
    13:00 +26°C° 0 mm 3 mps 755 mmHg 43%
    14:00 +26°C° 0 mm 3 mps 755 mmHg 43%
    15:00 +27°C° 0 mm 3 mps 755 mmHg 43%
    16:00 +26°C° 0 mm 3 mps 755 mmHg 46%
    17:00 +25°C° 0 mm 3 mps 755 mmHg 49%
    18:00 +25°C° 0 mm 2 mps 755 mmHg 51%
    19:00 +24°C° 0 mm 2 mps 755 mmHg 55%
    20:00 +23°C° 0 mm 2 mps 756 mmHg 58%
    21:00 +20°C° 0 mm 2 mps 756 mmHg 61%
    22:00 +20°C° 0 mm 2 mps 756 mmHg 63%
    23:00 +19°C° 0 mm 2 mps 756 mmHg 65%

    26 August, Sunday

    Time Temperature Precipitation Wind Pressure Humidity
    00:00 +18°C° 0 mm 3 mps 756 mmHg 67%
    01:00 +18°C° 0 mm 2 mps 757 mmHg 66%
    02:00 +17°C° 0 mm 2 mps 757 mmHg 66%
    03:00 +17°C° 0 mm 2 mps 757 mmHg 65%
    04:00 +17°C° 0 mm 2 mps 757 mmHg 64%
    05:00 +17°C° 0 mm 2 mps 757 mmHg 62%
    06:00 +17°C° 0 mm 2 mps 758 mmHg 61%
    07:00 +18°C° 0 mm 2 mps 758 mmHg 55%
    08:00 +20°C° 0 mm 2 mps 758 mmHg 49%
    09:00 +22°C° 0 mm 3 mps 758 mmHg 43%
    10:00 +24°C° 0 mm 3 mps 758 mmHg 41%
    11:00 +25°C° 0 mm 3 mps 758 mmHg 38%
    12:00 +26°C° 0 mm 3 mps 757 mmHg 35%
    13:00 +26°C° 0 mm 3 mps 757 mmHg 33%
    14:00 +27°C° 0 mm 3 mps 757 mmHg 31%
    15:00 +27°C° 0 mm 3 mps 756 mmHg 30%
    16:00 +27°C° 0 mm 2 mps 756 mmHg 32%
    17:00 +26°C° 0 mm 2 mps 756 mmHg 35%
    18:00 +25°C° 0 mm 2 mps 756 mmHg 37%
    19:00 +24°C° 0 mm 2 mps 756 mmHg 40%
    20:00 +21°C° 0 mm 2 mps 756 mmHg 43%
    21:00 +20°C° 0 mm 3 mps 756 mmHg 45%
    22:00 +20°C° 0 mm 3 mps 756 mmHg 48%
    23:00 +19°C° 0 mm 3 mps 756 mmHg 50%
    Show more